Regional Weather Roundup
Issued by NWS Northern Indiana

Home | Current Version | Previous Version | Graphics & Text | Print | Product List | Glossary On
Versions: 1 2 3 4 5 6 7 8 9 10 11 12 13 14 15 16 17 18 19 20 21 22 23 24 25 26 27 28 29 30 31 32 33 34 35 36 37 38 39 40 41 42 43 44 45 46 47 48 49 50
000
ASUS43 KIWX 180100
RWRIWX

KIWX WEATHER ROUNDUP
NATIONAL WEATHER SERVICE NORTHERN INDIANA
900 PM EDT THU APR 17 2014

NOTE: "FAIR" INDICATES FEW OR NO CLOUDS BELOW 12,000 FEET WITH NO
SIGNIFICANT WEATHER AND/OR OBSTRUCTIONS TO VISIBILITY.

* THESE STATIONS ARE NOT UNDER NWS QUALITY CONTROL. THEY ALSO MAY NOT
  REPORT WEATHER SUCH AS PRECIPITATION OR FOG.

INZ001>027-180200-
NORTHERN INDIANA

CITY           SKY/WX    TMP DP  RH WIND       PRES   REMARKS
GARY*          CLOUDY    59  37  44 W14       30.22R
VALPARAISO     CLOUDY    55  38  52 W8        30.23R
LAPORTE*       CLOUDY    55  37  50 NW5       30.23R
SOUTH BEND     MOCLDY    56  36  47 NW9       30.24R
ELKHART*       MOCLDY    57  36  44 SW7       30.22R
GOSHEN         PTCLDY    56  38  50 S7        30.22R
MONTICELLO*    MOCLDY    57  38  50 SW6       30.23R
ANGOLA*        CLEAR     55  37  50 CALM      30.23R
FORT WAYNE     MOCLDY    56  34  43 SW6       30.25R

$$
INZ028>050-180200-
CENTRAL INDIANA

CITY           SKY/WX    TMP DP  RH WIND       PRES   REMARKS
LAFAYETTE      MOCLDY    59  35  40 SW5       30.24R
KOKOMO*        CLOUDY    57  37  47 S9        30.25R
MUNCIE*        MOCLDY    59  34  39 S7        30.26R
INDIANAPOLIS   MOCLDY    55  34  45 W7        30.26R

$$
MIZ043>046-050>051-056>058-064>065-071>073-077>080-180200-
SOUTHWEST LOWER MICHIGAN

CITY           SKY/WX    TMP DP  RH WIND       PRES   REMARKS
BATTLE CREEK   MOCLDY    56  36  47 W8        30.22R
BENTON HARBOR  CLOUDY    52  36  54 CALM      30.23R
COLDWATER*     PTCLDY    53  34  48 SW3       30.22R
HILLSDALE*     MOCLDY    58  32  38 S5        30.23R
HOLLAND        MOCLDY    50  37  61 NW5       30.23R
GRAND RAPIDS   CLOUDY    52  38  58 W6        30.21S
KALAMAZOO      MOCLDY    54  37  52 NW7       30.22R
STURGIS*       PTCLDY    54  37  54 S7        30.22R
THREE RIVERS*  FAIR      56  36  47 NW7       30.22R

$$
OHZ001>008-015>018-024>025-180200-
NORTHWEST OHIO

CITY           SKY/WX    TMP DP  RH WIND       PRES   REMARKS
DEFIANCE       MOCLDY    58  32  37 SW5       30.24R
FINDLAY        PTCLDY    54  38  54 S5        30.25R
TOLEDO EXPRESS PTCLDY    61  32  33 S8        30.24R
TOLEDO METCALF PTCLDY    57  33  40 S8        30.26R

$$
&&



USA.gov is the U.S. government's official web portal to all federal, state and local government web resources and services.